Tracking 28052 objects as of 22-Sep-2023
HD Live streaming from Space Station
objects crossing your sky now

STARLINK-5706

Track STARLINK-5706 now!
10-day predictions
STARLINK-5706 is classified as:


NORAD ID: 55488
Int'l Code: 2023-015AR
Perigee: 565.3 km
Apogee: 567.1 km
Inclination: 43.0 °
Period: 95.8 minutes
Semi major axis: 6937 km
RCS: Unknown
Launch date: February 2, 2023
Source: United States (US)
Launch site: AIR FORCE EASTERN TEST RANGE (AFETR)
Your satellite tracking list
Your tracking list is empty




NASA's NSSDC Master Catalog

Two Line Element Set (TLE):
1 55488U 23015AR  23265.09352706  .00001686  00000-0  13982-3 0  9998
2 55488  43.0028 186.9368 0001273 272.8857  87.1840 15.02547071 35280
Source of the keplerian elements: AFSPC